TimeCST,TemperatureF,Dew PointF,Humidity,Sea Level PressureIn,VisibilityMPH,Wind Direction,Wind SpeedMPH,Gust SpeedMPH,PrecipitationIn,Events,Conditions,WindDirDegrees,DateUTC
12:10 AM,17.6,14.0,86,29.95,1.0,ESE,17.3,-,0.02,Snow,Light Snow,110,2013-02-21 06:10:00
12:18 AM,17.6,14.0,86,29.94,2.0,ESE,17.3,-,0.03,Snow,Light Snow,110,2013-02-21 06:18:00
12:32 AM,17.6,14.0,86,29.95,3.0,ESE,15.0,-,0.03,Snow,Light Snow,110,2013-02-21 06:32:00
12:53 AM,17.1,12.9,84,30.06,5.0,ESE,17.3,-,0.03,Snow,Light Snow,110,2013-02-21 06:53:00
1:06 AM,17.6,12.2,79,29.94,2.5,ESE,16.1,-,0.00,Snow,Light Snow,110,2013-02-21 07:06:00
1:16 AM,17.6,12.2,79,29.93,5.0,ESE,13.8,23.0,0.00,Snow,Light Snow,110,2013-02-21 07:16:00
1:40 AM,17.6,12.2,79,29.93,2.5,ESE,16.1,-,0.00,Snow,Light Snow,110,2013-02-21 07:40:00
1:51 AM,17.6,14.0,86,29.93,1.2,ESE,16.1,-,0.01,Snow,Light Snow,110,2013-02-21 07:51:00
1:52 AM,17.1,14.0,88,30.05,1.2,ESE,15.0,-,0.01,Snow,Light Snow,110,2013-02-21 07:52:00
2:22 AM,17.6,12.2,79,29.94,1.0,ESE,16.1,-,0.02,Snow,Light Snow,110,2013-02-21 08:22:00
2:35 AM,17.6,12.2,79,29.92,1.2,East,15.0,-,0.02,Snow,Light Snow,100,2013-02-21 08:35:00
2:53 AM,17.1,12.9,84,30.03,1.8,East,17.3,-,0.04,Snow,Light Snow,100,2013-02-21 08:53:00
2:59 AM,17.6,12.2,79,29.91,2.5,East,18.4,-,0.00,Snow,Light Snow,100,2013-02-21 08:59:00
3:02 AM,17.6,12.2,79,29.91,3.0,East,17.3,-,0.00,Snow,Light Snow,100,2013-02-21 09:02:00
3:12 AM,17.6,12.2,79,29.88,4.0,East,16.1,-,0.00,Snow,Light Snow,100,2013-02-21 09:12:00
3:53 AM,17.1,12.9,84,30.01,2.5,ESE,15.0,-,0.00,Snow,Light Snow,110,2013-02-21 09:53:00
4:33 AM,17.6,12.2,79,29.90,1.2,East,13.8,-,0.01,Snow,Light Snow,100,2013-02-21 10:33:00
4:39 AM,17.6,12.2,79,29.90,0.8,ESE,13.8,-,0.02,Snow,Light Snow,110,2013-02-21 10:39:00
4:49 AM,17.6,12.2,79,29.91,1.2,ESE,13.8,-,0.03,Snow,Light Snow,110,2013-02-21 10:49:00
4:53 AM,17.1,12.9,84,30.02,1.2,East,11.5,-,0.03,Snow,Light Snow,100,2013-02-21 10:53:00
5:21 AM,17.6,12.2,79,29.91,2.0,East,12.7,-,0.01,Snow,Light Snow,100,2013-02-21 11:21:00
5:41 AM,17.6,12.2,79,29.90,1.8,East,10.4,-,0.02,Snow,Light Snow,100,2013-02-21 11:41:00
5:53 AM,17.1,14.0,88,30.01,2.5,East,8.1,-,0.02,Snow,Light Snow,100,2013-02-21 11:53:00
5:59 AM,17.6,12.2,79,29.90,2.5,East,9.2,-,0.00,Snow,Light Snow,90,2013-02-21 11:59:00
6:17 AM,17.6,14.0,86,29.91,1.5,ESE,8.1,-,0.01,Snow,Light Snow,110,2013-02-21 12:17:00
6:50 AM,17.6,14.0,86,29.90,1.2,East,12.7,-,0.03,Snow,Light Snow,100,2013-02-21 12:50:00
6:53 AM,17.1,14.0,88,30.01,1.5,East,13.8,-,0.03,Snow,Light Snow,100,2013-02-21 12:53:00
7:02 AM,17.6,12.2,79,29.91,2.0,East,16.1,-,0.01,Snow,Light Snow,100,2013-02-21 13:02:00
7:11 AM,17.6,14.0,86,29.91,5.0,East,13.8,-,0.01,Snow,Light Snow,100,2013-02-21 13:11:00
7:20 AM,17.6,14.0,86,29.91,2.0,East,10.4,-,0.01,Snow,Light Snow,90,2013-02-21 13:20:00
7:23 AM,17.6,14.0,86,29.92,1.2,East,13.8,-,0.01,Snow,Light Snow,90,2013-02-21 13:23:00
7:44 AM,17.6,12.2,79,29.93,1.8,East,10.4,-,0.03,Snow,Light Snow,100,2013-02-21 13:44:00
7:53 AM,17.1,12.9,84,30.05,2.5,East,8.1,-,0.03,Snow,Light Snow,100,2013-02-21 13:53:00
8:06 AM,17.6,12.2,79,29.93,1.5,East,8.1,-,0.00,Snow,Light Snow,90,2013-02-21 14:06:00
8:21 AM,17.6,12.2,79,29.93,1.0,East,9.2,-,0.01,Snow,Light Snow,90,2013-02-21 14:21:00
8:34 AM,17.6,12.2,79,29.93,0.8,East,8.1,-,0.02,Snow,Light Snow,90,2013-02-21 14:34:00
8:53 AM,17.1,12.0,81,30.06,1.2,East,11.5,-,0.02,Snow,Light Snow,90,2013-02-21 14:53:00
9:03 AM,17.6,12.2,79,29.94,1.8,East,9.2,-,0.00,Snow,Light Snow,90,2013-02-21 15:03:00
9:12 AM,17.6,12.2,79,29.94,2.5,East,9.2,-,0.00,Snow,Light Snow,80,2013-02-21 15:12:00
9:21 AM,17.6,12.2,79,29.94,3.0,East,6.9,-,0.00,Snow,Light Snow,80,2013-02-21 15:21:00
9:39 AM,17.6,12.2,79,29.95,2.0,East,9.2,-,0.01,Snow,Light Snow,80,2013-02-21 15:39:00
9:51 AM,17.6,12.2,79,29.94,1.2,ENE,8.1,-,0.01,Snow,Light Snow,70,2013-02-21 15:51:00
9:53 AM,17.1,12.0,81,30.06,1.0,ENE,8.1,-,0.01,Snow,Light Snow,70,2013-02-21 15:53:00
10:00 AM,17.6,12.2,79,29.94,0.8,ENE,9.2,-,0.00,Snow,Light Snow,60,2013-02-21 16:00:00
10:53 AM,17.1,12.0,81,30.04,0.8,ENE,8.1,-,0.02,Snow,Light Snow,60,2013-02-21 16:53:00
11:53 AM,17.1,12.0,81,30.03,1.0,NE,10.4,-,0.02,Snow,Light Snow,50,2013-02-21 17:53:00
12:00 PM,17.6,12.2,79,29.90,0.8,NE,9.2,-,0.00,Snow,Light Snow,40,2013-02-21 18:00:00
12:45 PM,17.6,12.2,79,29.89,1.0,NE,10.4,-,0.01,Snow,Light Snow,40,2013-02-21 18:45:00
12:53 PM,17.1,12.0,81,30.01,0.8,NNE,9.2,-,0.02,Snow,Light Snow,30,2013-02-21 18:53:00
1:17 PM,17.6,12.2,79,29.88,0.8,NNE,13.8,-,0.01,Snow,Light Snow,30,2013-02-21 19:17:00
1:53 PM,17.1,12.0,81,29.98,0.8,NNE,16.1,-,0.01,Snow,Light Snow,20,2013-02-21 19:53:00
2:12 PM,17.6,12.2,79,29.86,1.0,NNE,17.3,21.9,0.01,Snow,Light Snow,30,2013-02-21 20:12:00
2:30 PM,15.8,10.4,79,29.86,0.8,NNE,16.1,20.7,0.02,Snow,Light Snow,30,2013-02-21 20:30:00
2:53 PM,16.0,10.9,81,29.99,0.5,NNE,12.7,-,0.02,Snow,Snow,30,2013-02-21 20:53:00
3:12 PM,15.8,10.4,79,29.86,0.8,NNE,15.0,-,0.01,Snow,Light Snow,30,2013-02-21 21:12:00
3:51 PM,17.6,12.2,79,29.87,0.2,NNE,11.5,-,0.02,Snow,Heavy Snow,30,2013-02-21 21:51:00
3:53 PM,17.1,12.0,81,29.99,0.5,NNE,12.7,-,0.02,Snow,Snow,20,2013-02-21 21:53:00
4:04 PM,15.8,12.2,86,29.86,0.5,NNE,15.0,-,0.01,Fog-Snow,Light Snow,20,2013-02-21 22:04:00
4:53 PM,17.1,12.0,81,29.99,0.5,NNE,10.4,-,0.02,Snow,Snow,20,2013-02-21 22:53:00
5:05 PM,17.6,12.2,79,29.86,0.8,North,12.7,-,0.01,Snow,Light Snow,10,2013-02-21 23:05:00
5:26 PM,15.8,12.2,86,29.87,1.0,NNE,12.7,-,0.01,Snow,Light Snow,20,2013-02-21 23:26:00
5:53 PM,16.0,10.9,81,29.99,1.5,NNE,15.0,-,0.01,Snow,Light Snow,20,2013-02-21 23:53:00
6:38 PM,15.8,10.4,79,29.87,2.0,NE,20.7,25.3,0.01,Snow,Light Snow,40,2013-02-22 00:38:00
6:45 PM,15.8,10.4,79,29.87,1.5,NNE,17.3,25.3,0.01,Snow,Light Snow,30,2013-02-22 00:45:00
6:53 PM,16.0,10.9,81,30.00,1.8,NE,12.7,-,0.01,Snow,Light Snow,40,2013-02-22 00:53:00
7:01 PM,15.8,10.4,79,29.88,1.8,NNE,17.3,23.0,0.00,Snow,Light Snow,30,2013-02-22 01:01:00
7:43 PM,15.8,10.4,79,29.90,2.0,NE,12.7,-,0.01,Snow,Light Snow,40,2013-02-22 01:43:00
7:53 PM,15.1,10.0,80,30.03,3.0,NE,12.7,-,0.01,Snow,Light Snow,50,2013-02-22 01:53:00
8:12 PM,15.8,10.4,79,29.90,2.5,NNE,5.8,-,0.00,Snow,Light Snow,30,2013-02-22 02:12:00
8:26 PM,15.8,10.4,79,29.91,3.0,NNE,8.1,-,0.00,Snow,Light Snow,30,2013-02-22 02:26:00
8:53 PM,15.1,10.0,80,30.04,4.0,NNE,9.2,-,0.00,,Haze,20,2013-02-22 02:53:00
9:53 PM,14.0,9.0,80,30.05,10.0,North,9.2,-,N/A,,Overcast,360,2013-02-22 03:53:00
10:51 PM,14.0,8.6,79,29.92,6.0,NNW,8.1,-,0.00,,Haze,340,2013-02-22 04:51:00
10:53 PM,12.9,9.0,84,30.05,7.0,NNW,8.1,-,0.00,,Mostly Cloudy,340,2013-02-22 04:53:00
11:07 PM,14.0,8.6,79,29.91,9.0,North,8.1,-,N/A,,Scattered Clouds,350,2013-02-22 05:07:00
11:53 PM,14.0,8.6,79,29.91,5.0,NNW,8.1,-,N/A,Snow,Light Snow,340,2013-02-22 05:53:00